Gustavus, AK

2:55 AM AKDT on September 21, 2017 (GMT -0800)
Gustavus

Weather History for PAGS - October, 2011

Change the Weather History Date:

Saturday, October 29, 2011

  Actual Average Record
Temperature  
Mean Temperature 44 °F -  
Max Temperature 46 °F 43 °F 53 °F (1952)
Min Temperature 42 °F 31 °F 13 °F (1950)
Degree Days  
Heating Degree Days 21    
Moisture  
Dew Point 38 °F    
Average Humidity 77    
Maximum Humidity 87    
Minimum Humidity 66    
Precipitation  
Precipitation 0.00 in - - ()
Sea Level Pressure  
Sea Level Pressure 29.36 in    
Wind  
Wind Speed 12 mph (SE)    
Max Wind Speed 25 mph    
Max Gust Speed 39 mph    
Visibility 10 miles    
Events      
Averages and records for this station are not official NWS values.
T = Trace of Precipitation, MM = Missing Value Source: NWS Daily Summary

Daily Weather History Graph

Daily Weather History Graph

Search for Another Location

Airport or City:

Trip Planner

Search our weather history database for the weather conditions in past years. The results will help you decide how hot, cold, wet, or windy it might be!

Date:

Astronomy

Oct. 29, 2011 Rise Set
Actual Time 8:11 AM AKDT 5:20 PM AKDT
Civil Twilight 7:29 AM AKDT 6:02 PM AKDT
Nautical Twilight 6:42 AM AKDT 6:49 PM AKDT
Astronomical Twilight 5:56 AM AKDT 7:35 PM AKDT
Moon 12:31 PM AKDT (10/29) 7:02 PM AKDT (10/29)
Length of Visible Light 10h 33m
Length of Day
9h 09m
Waxing Crescent, 13% of the Moon is Illuminated
Oct 29
Waxing Crescent
Nov 2
First Quarter
Nov 10
Full
Nov 18
Last Quarter
Nov 24
New

Hourly Weather History & Observations

Time (AKDT) Temp. Windchill Dew Point Humidity Pressure Visibility Wind Dir Wind Speed Gust Speed Precip Events Conditions
12:16 AM 44.6 °F 40.2 °F 39.2 °F 81% 29.50 in 10.0 mi SE 8.1 mph - N/A   Overcast
12:36 AM 44.6 °F 39.2 °F 39.2 °F 81% 29.50 in 10.0 mi SE 10.4 mph - N/A   Overcast
12:56 AM 44.6 °F 39.7 °F 37.4 °F 76% 29.49 in 10.0 mi SE 9.2 mph - N/A   Overcast
1:16 AM 44.6 °F 39.7 °F 37.4 °F 76% 29.50 in 10.0 mi SSE 9.2 mph - N/A   Overcast
1:36 AM 44.6 °F 40.2 °F 37.4 °F 76% 29.50 in 10.0 mi SE 8.1 mph - N/A   Overcast
2:16 AM 44.6 °F 38.8 °F 37.4 °F 76% 29.50 in 10.0 mi SE 11.5 mph - N/A   Overcast
2:36 AM 44.6 °F 38.1 °F 39.2 °F 81% 29.49 in 10.0 mi SE 13.8 mph - N/A   Overcast
2:56 AM 44.6 °F 39.2 °F 39.2 °F 81% 29.49 in 10.0 mi SSE 10.4 mph - N/A   Overcast
3:16 AM 44.6 °F 37.8 °F 39.2 °F 81% 29.49 in 10.0 mi SE 15.0 mph - N/A   Overcast
3:36 AM 44.6 °F 39.2 °F 39.2 °F 81% 29.48 in 10.0 mi SSE 10.4 mph 17.3 mph N/A   Mostly Cloudy
3:56 AM 46.4 °F 41.1 °F 37.4 °F 71% 29.48 in 10.0 mi SE 11.5 mph 16.1 mph N/A   Mostly Cloudy
4:16 AM 46.4 °F 40.7 °F 39.2 °F 76% 29.47 in 10.0 mi SE 12.7 mph - N/A   Mostly Cloudy
4:36 AM 46.4 °F 41.1 °F 39.2 °F 76% 29.46 in 10.0 mi SE 11.5 mph 19.6 mph N/A   Overcast
4:56 AM 46.4 °F 40.7 °F 39.2 °F 76% 29.45 in 10.0 mi SE 12.7 mph 18.4 mph N/A   Overcast
5:16 AM 46.4 °F 39.5 °F 37.4 °F 71% 29.44 in 10.0 mi SE 17.3 mph - N/A   Overcast
5:36 AM 44.6 °F 38.1 °F 39.2 °F 81% 29.43 in 10.0 mi SE 13.8 mph 21.9 mph N/A   Overcast
5:56 AM 44.6 °F 36.9 °F 37.4 °F 76% 29.41 in 10.0 mi SE 18.4 mph 23.0 mph N/A   Overcast
6:16 AM 44.6 °F 35.9 °F 37.4 °F 76% 29.40 in 10.0 mi ESE 23.0 mph 29.9 mph N/A   Overcast
6:36 AM 44.6 °F 36.4 °F 37.4 °F 76% 29.38 in 10.0 mi SE 20.7 mph 32.2 mph N/A   Overcast
6:56 AM 44.6 °F 37.4 °F 37.4 °F 76% 29.36 in 10.0 mi SE 16.1 mph 25.3 mph N/A   Overcast
7:16 AM 44.6 °F 37.4 °F 35.6 °F 71% 29.33 in 10.0 mi SE 16.1 mph 24.2 mph N/A   Overcast
7:36 AM 44.6 °F 36.6 °F 35.6 °F 71% 29.32 in 10.0 mi SSE 19.6 mph 25.3 mph N/A   Overcast
7:56 AM 46.4 °F 39.0 °F 35.6 °F 66% 29.30 in 10.0 mi SE 19.6 mph 33.4 mph N/A   Overcast
8:16 AM 44.6 °F 35.9 °F 35.6 °F 71% 29.29 in 10.0 mi SE 23.0 mph 31.1 mph N/A   Overcast
8:36 AM 44.6 °F 36.4 °F 35.6 °F 71% 29.28 in 10.0 mi SE 20.7 mph 33.4 mph N/A   Overcast
8:56 AM 44.6 °F 35.9 °F 35.6 °F 71% 29.27 in 8.0 mi SE 23.0 mph 33.4 mph N/A   Overcast
9:36 AM 44.6 °F 35.5 °F 35.6 °F 71% 29.26 in 8.0 mi SE 25.3 mph 35.7 mph N/A   Overcast
9:56 AM 44.6 °F 35.9 °F 37.4 °F 76% 29.26 in 8.0 mi SE 23.0 mph 39.1 mph N/A   Overcast
10:16 AM 44.6 °F 35.7 °F 37.4 °F 76% 29.27 in 8.0 mi SE 24.2 mph 36.8 mph N/A   Overcast
10:36 AM 44.6 °F 35.7 °F 37.4 °F 76% 29.28 in 10.0 mi SSE 24.2 mph 34.5 mph N/A   Mostly Cloudy
10:56 AM 44.6 °F 37.4 °F 37.4 °F 76% 29.30 in 10.0 mi SSE 16.1 mph 26.5 mph N/A   Mostly Cloudy
11:16 AM 44.6 °F 37.8 °F 37.4 °F 76% 29.32 in 9.0 mi SSE 15.0 mph 26.5 mph N/A   Overcast
11:36 AM 44.6 °F 38.8 °F 37.4 °F 76% 29.32 in 10.0 mi SSE 11.5 mph 17.3 mph N/A   Overcast
11:56 AM 44.6 °F 39.2 °F 39.2 °F 81% 29.33 in 10.0 mi SSE 10.4 mph - N/A   Overcast
12:16 PM 44.6 °F 38.1 °F 39.2 °F 81% 29.34 in 10.0 mi SE 13.8 mph - N/A   Overcast
12:36 PM 44.6 °F 37.4 °F 39.2 °F 81% 29.33 in 10.0 mi SE 16.1 mph 23.0 mph N/A   Overcast
1:36 PM 46.4 °F 39.5 °F 37.4 °F 71% 29.33 in 10.0 mi SE 17.3 mph 21.9 mph N/A   Overcast
1:56 PM 44.6 °F 40.7 °F 37.4 °F 76% 29.34 in 10.0 mi SSE 6.9 mph - N/A   Overcast
2:16 PM 44.6 °F 39.7 °F 37.4 °F 76% 29.33 in 10.0 mi SE 9.2 mph - N/A   Overcast
2:36 PM 46.4 °F 41.1 °F 39.2 °F 76% 29.33 in 10.0 mi SE 11.5 mph - N/A   Overcast
2:56 PM 46.4 °F 41.5 °F 39.2 °F 76% 29.31 in 10.0 mi SE 10.4 mph - N/A   Overcast
3:16 PM 46.4 °F 40.7 °F 39.2 °F 76% 29.31 in 10.0 mi SE 12.7 mph - N/A   Overcast
3:36 PM 46.4 °F 42.4 °F 39.2 °F 76% 29.31 in 10.0 mi SE 8.1 mph - N/A   Overcast
3:56 PM 46.4 °F 41.5 °F 37.4 °F 71% 29.31 in 10.0 mi SE 10.4 mph 19.6 mph N/A   Mostly Cloudy
4:16 PM 46.4 °F 41.5 °F 37.4 °F 71% 29.31 in 10.0 mi SE 10.4 mph - N/A   Mostly Cloudy
4:36 PM 46.4 °F 41.1 °F 37.4 °F 71% 29.30 in 10.0 mi SE 11.5 mph - N/A   Overcast
4:56 PM 46.4 °F 39.5 °F 39.2 °F 76% 29.29 in 10.0 mi SE 17.3 mph - N/A   Overcast
5:16 PM 44.6 °F 39.7 °F 39.2 °F 81% 29.30 in 10.0 mi SSE 9.2 mph 20.7 mph N/A   Mostly Cloudy
5:36 PM 44.6 °F 39.7 °F 39.2 °F 81% 29.31 in 9.0 mi SSE 9.2 mph - N/A   Overcast
5:56 PM 44.6 °F 40.2 °F 39.2 °F 81% 29.31 in 8.0 mi WSW 8.1 mph - N/A   Overcast
6:16 PM 42.8 °F - 37.4 °F 81% 29.31 in 10.0 mi Calm Calm - N/A   Overcast
6:36 PM 42.8 °F - 37.4 °F 81% 29.31 in 10.0 mi Calm Calm - N/A   Overcast
6:56 PM 42.8 °F 40.1 °F 37.4 °F 81% 29.31 in 10.0 mi East 4.6 mph - N/A   Overcast
7:16 PM 42.8 °F - 37.4 °F 81% 29.31 in 10.0 mi Calm Calm - N/A   Overcast
7:36 PM 42.8 °F 38.0 °F 39.2 °F 87% 29.31 in 10.0 mi East 8.1 mph - N/A   Overcast
7:56 PM 42.8 °F 37.5 °F 39.2 °F 87% 29.31 in 10.0 mi ESE 9.2 mph - N/A   Overcast
8:16 PM 42.8 °F 37.5 °F 37.4 °F 81% 29.31 in 10.0 mi ESE 9.2 mph - N/A   Overcast
8:36 PM 42.8 °F 36.6 °F 37.4 °F 81% 29.31 in 10.0 mi ESE 11.5 mph - N/A   Overcast
8:56 PM 42.8 °F 36.6 °F 37.4 °F 81% 29.31 in 10.0 mi ESE 11.5 mph - N/A   Overcast
9:16 PM 42.8 °F 37.5 °F 37.4 °F 81% 29.31 in 10.0 mi SE 9.2 mph - N/A   Overcast
9:36 PM 44.6 °F 38.4 °F 37.4 °F 76% 29.31 in 10.0 mi SE 12.7 mph - N/A   Overcast
9:56 PM 42.8 °F 35.8 °F 37.4 °F 81% 29.32 in 9.0 mi SE 13.8 mph 21.9 mph N/A   Overcast
10:16 PM 42.8 °F 35.1 °F 37.4 °F 81% 29.33 in 10.0 mi SE 16.1 mph - N/A   Overcast
10:36 PM 42.8 °F 36.2 °F 37.4 °F 81% 29.33 in 10.0 mi SE 12.7 mph 19.6 mph N/A   Mostly Cloudy
10:56 PM 42.8 °F 36.6 °F 37.4 °F 81% 29.33 in 10.0 mi SE 11.5 mph 21.9 mph N/A   Mostly Cloudy
11:16 PM 42.8 °F 34.5 °F 37.4 °F 81% 29.32 in 10.0 mi SE 18.4 mph 23.0 mph N/A   Overcast
11:56 PM 42.8 °F 36.6 °F 35.6 °F 76% 29.33 in 10.0 mi ESE 11.5 mph - N/A   Overcast